FENGYUN 1C DEB

Satellite information

Favourite Embed

Satellite Type and Status

DEBRISIN ORBIT

Key statistics

Satellite FENGYUN 1C DEB at a glance.

Uptime

9496

Days in orbit

Revolutions

≈ 15.1

Per day

Orbit

SSO

Sun Synchronous Orbit

Inclination

99.2

Latest

Satellite identification and parameters

Extended collection of information and parameters for FENGYUN 1C DEB.

Object identification

Identified? True

Debris? True

Object name: FENGYUN 1C DEB

International designator: 1999-025ATF

Object number (NORAD): 30745

Object ID (CCSDS): 30745

Country: PEOPLES REPUBLIC OF CHINA (PRC)

Current information (Y/N): Y

RCS size: SMALL

Orbital parameters

Period: 95.483 minutes

Inclination: 99.2294 deg

SMA: 6920.064 km

Apoapsis: 547.536 km

Periapsis: 536.323 km

RAAN: 275.6128 deg

Eccentricy: 0.0008102

Argument of periapsis: 213.2167 deg

Mean anomaly: 174.9021 deg

Mean motion: 15.08125731 rev/day

Mean motion (dot): 0.00116013 rev/day2

B* drag term: 0.0073975 1/REarth

Two-line elements (TLE)

Creation date: May 9, 2025, 2:46 a.m.

Reference frame: TEME

Reference center: EARTH

Epoch: May 8, 2025, 9:06 a.m. UTC

TLE line 0: 0 FENGYUN 1C DEB

TLE line 1: 1 30745U 99025ATF 25128.37979950 .00116013 00000-0 73975-2 0 9996

TLE line 2: 2 30745 99.2294 275.6128 0008102 213.2167 174.9021 15.08125731949481

Live tracking on map

Real-time ground track for satellite FENGYUN 1C DEB.

In-orbit conjunctions

A list of the most updated potential collisions computed for object FENGYUN 1C DEB.

Target Orbit TCA Probability of collision Miss distance Type
CZ-6A DEB LEO 2025-01-03 10:22:58 0.0001818981 194.0 (m) DEBRIS
COSMOS 2441 SSO 2024-08-29 15:53:03 0.0008907053 511.0 (m) PAYLOAD

Associated space launch

Chinese polar orbiting meteorological satellite

FENGYUN 1C DEB was lifted into orbit during the mission ‘Long March 4B | Feng Yun 1C’, on board a Long March 4B space rocket.

The launch took place on May 10, 1999, 1:33 a.m. from Launch Complex 7.

For more information about the launch, click the button.

Launch to space Long March 4B | Feng Yun 1C
Long March 4B | Feng Yun 1C

Agency: N/A

Status: Launch Successful

Launch date: May 10, 1999, 1:33 a.m. UTC

Rocket: Long March 4B

Launch pad: Launch Complex 7

Location: Taiyuan Satellite Launch Center, People's Republic of China

...

Latest news about this satellite

There are no fresh news available about this satellite. Check back as we update our databases every day.


Newsletter sign-up

Weekly statistics, charts and insights to help you stay on top of the space industry.